SCP
0 0 0 0 0 0 0 0 0 0 0 0 0 0 0 0 0 0 0 0 0 0 0 0 0 0 1 1 1 1 1 1 -0 -0 0 0 0 0 0 0 0 0 0
0 -0 -0 0 0 0 0 0 0 0 0 0 0 0 0 0 0 0 0 0 0 0 0 0 0 0 0 1 1 1 1 0 1 0 0 0 0 0 0 0 0 0 0
0 0 0 0 0 0 0 0 0 0 0 0 0 0 0 0 0 0 0 0 0 0 0 0 0 0 0 0 0 0 1 1 1 1 0 0 0 0 0 0 0 0 0
0 0 0 0 0 0 0 0 0 0 0 0 0 0 0 0 0 0 0 0 0 0 0 0 0 0 0 0 0 0 0 0 1 0 0 0 0 0 0 0 0 0 0
0 0 0 0 0 0 0 0 0 0 0 0 0 0 0 0 0 0 0 0 0 0 0 0 0 0 -0 0 0 0 0 0 0 0 0 0 0 0 0 0 0 0 0
0 0 0 0 0 0 0 0 0 0 0 0 0 0 0 0 0 0 0 0 0 0 0 0 0 0 -0 -0 -0 0 0 0 0 0 0 0 0 0 0 0 0 0 0
0 0 0 0 0 0 0 0 0 0 0 0 0 0 0 0 0 0 0 0 0 0 0 0 0 0 0 0 0 0 0 0 0 0 0 0 0 0 0 0 0 0 0
0 0 0 0 0 0 0 0 0 0 0 0 0 0 0 0 0 0 0 0 0 0 0 0 0 0 0 0 0 0 0 0 0 0 0 0 0 0 0 0 0 0 0
-0 -0 0 0 0 0 0 0 0 0 0 0 0 0 0 0 0 0 0 0 0 0 0 0 0 0 0 0 0 0 0 0 0 0 0 0 0 0 0 0 0 0 0
-0 -0 -0 0 0 0 0 0 0 0 0 0 0 0 0 0 0 0 0 0 0 0 0 0 0 0 -0 -0 0 0 0 0 0 0 0 0 0 0 0 0 0 0 0
0 0 0 0 0 0 0 0 0 0 0 0 0 0 0 0 0 0 0 0 0 0 0 0 0 0 -0 -0 0 0 0 0 0 0 0 0 0 0 0 0 0 0 0
0 0 0 0 0 0 0 0 0 0 0 0 0 0 0 0 0 0 0 0 0 0 0 0 0 0 -0 0 0 0 0 0 0 0 0 0 0 0 0 0 0 0 0
0 0 0 0 0 0 0 0 0 0 0 0 0 0 0 0 0 0 0 0 0 0 0 0 0 0 0 0 0 0 0 0 0 0 0 0 0 0 0 0 0 0 0
0 0 0 0 0 0 0 0 0 0 0 0 0 0 0 0 0 0 0 0 0 0 0 0 0 0 0 0 0 0 0 0 0 0 0 0 0 0 0 0 0 0 0
-0 -0 0 0 0 0 0 0 0 0 0 0 0 0 0 0 0 0 0 0 0 0 0 0 0 0 0 0 0 0 0 0 0 0 0 0 0 0 0 0 0 0 0
0 0 0 0 0 0 0 0 0 0 0 0 0 0 0 0 0 0 0 0 0 0 0 0 0 0 0 0 0 0 0 0 0 0 0 0 0 0 0 0 0 0 0
0 0 0 0 0 0 0 0 0 0 -0 -0 0 0 0 0 0 0 0 0 0 0 0 0 0 0 0 -0 0 0 0 0 0 0 0 0 0 0 0 0 0 0 0
-0 -0 0 0 0 -0 0 0 0 0 0 0 0 0 0 0 0 0 0 0 0 0 0 0 -0 0 -0 -0 -0 0 0 0 0 0 0 0 0 0 0 0 0 0 0
-0 -0 0 0 0 -0 0 -0 -0 -0 -0 0 0 0 0 0 0 0 0 0 0 0 0 -0 -0 -0 -0 -0 0 0 0 0 0 0 0 0 0 0 0 0 0 0 0
-0 0 0 0 0 0 0 0 0 0 0 0 0 0 0 0 0 -0 -0 -0 -0 -0 -0 0 0 -0 -0 0 0 0 0 0 0 0 0 0 0 0 0 0 0 0 0
0 0 0 0 0 0 0 0 0 0 0 0 0 0 -0 0 0 -0 -0 0 0 0 0 0 0 0 0 0 0 0 0 0 0 0 0 0 0 0 0 0 0 0 0
-0 0 0 0 0 0 0 0 0 0 0 0 0 0 0 0 0 0 0 0 0 0 0 0 0 0 0 0 0 0 0 0 0 0 0 0 0 0 0 0 0 0 0
0 0 0 0 0 0 0 0 0 0 0 0 -0 0 0 -0 0 0 0 0 0 0 0 0 0 0 0 0 0 0 0 0 0 0 0 0 0 0 0 0 0 0 0
0 0 0 0 0 0 0 0 0 0 0 0 0 0 0 0 0 0 0 0 0 0 0 0 0 0 0 0 0 0 0 0 0 0 0 0 0 0 0 0 0 0 0
0 0 0 0 0 0 0 0 0 0 0 0 0 0 0 0 0 0 0 0 0 0 0 0 0 0 0 0 0 0 0 0 0 0 0 0 0 0 0 0 0 0 0
0 0 0 0 0 0 0 0 0 0 0 0 0 0 0 0 0 0 0 0 0 0 0 0 0 0 0 0 0 0 0 0 0 0 0 0 0 0 0 0 0 0 0
Wind_Speed_500mb
50 49 40 38 29 30 36 31 26 24 27 26 23 22 18 11 17 22 23 25 32 37 40 45 49 48 53 54 46 48 55 62 63 68 68 69 71 65 44 57 56 48 45
58 64 59 52 44 46 47 43 37 32 31 27 25 23 18 14 12 10 14 18 23 26 28 35 40 43 45 48 47 54 54 65 63 65 70 70 73 65 33 48 54 49 46
54 64 67 64 62 61 62 58 52 47 43 42 42 38 33 28 25 24 25 27 29 28 29 31 31 36 44 45 41 42 44 46 56 60 68 69 75 54 35 54 54 48 47
33 34 41 58 71 72 69 71 71 61 57 52 52 52 49 44 40 36 37 38 40 38 36 37 36 39 41 44 50 53 48 50 50 60 64 66 66 56 37 54 52 47 47
26 29 28 29 47 59 67 72 77 81 73 64 63 60 58 56 52 48 46 46 45 45 46 50 48 49 47 48 51 55 58 53 52 58 65 69 62 51 44 53 45 45 46
23 26 29 32 36 39 47 63 75 81 85 81 77 72 67 65 63 57 53 53 51 52 52 55 60 63 60 56 55 52 55 54 61 59 67 71 61 43 45 52 43 49 48
39 40 40 42 45 46 45 49 55 65 78 85 83 81 83 76 70 62 58 58 57 58 61 63 67 67 65 64 61 56 53 49 58 66 71 64 44 58 58 50 46 49 46
63 61 56 54 57 54 56 57 62 62 65 66 70 69 68 70 69 66 64 63 64 67 71 73 74 71 68 65 59 57 49 44 54 57 57 42 44 38 46 37 39 43 40
86 85 80 74 71 70 67 65 68 68 75 76 75 74 75 78 74 74 70 69 72 75 75 79 79 72 64 58 59 51 45 50 38 42 48 45 43 36 29 35 46 43 42
93 93 94 93 90 87 83 78 70 67 77 80 85 86 87 89 83 80 76 76 80 80 80 80 81 74 65 55 49 43 48 53 43 52 54 44 31 42 35 37 43 47 45
102 103 100 95 97 96 94 94 90 83 77 74 75 80 84 90 92 88 85 84 83 84 83 83 81 71 60 49 39 44 54 51 55 54 55 34 37 44 40 42 42 39 39
82 84 87 82 85 89 87 87 89 91 95 93 90 92 96 100 101 102 101 95 90 87 85 83 74 68 56 49 42 46 49 47 57 52 49 37 38 44 41 39 38 35 31
83 81 71 74 72 65 68 73 73 76 80 83 84 92 106 113 118 119 117 111 100 87 80 77 71 65 57 54 45 41 44 40 49 53 49 43 48 40 38 39 37 36 34
79 84 77 75 75 76 80 82 83 83 82 83 86 89 88 88 93 103 112 104 91 83 74 75 72 60 61 54 48 49 41 53 54 52 45 39 47 42 39 37 38 35 32
79 80 81 82 81 80 79 82 87 90 91 93 91 86 81 79 77 73 83 70 63 62 58 59 58 61 62 58 52 48 52 66 55 49 43 47 49 43 39 35 29 27 28
77 78 79 78 78 79 81 85 86 86 84 88 91 92 84 82 76 70 75 62 50 45 47 45 47 55 61 60 55 50 68 64 57 48 53 55 52 46 42 36 27 25 23
74 79 81 80 77 79 84 84 85 86 89 93 95 94 95 93 76 84 73 54 49 48 56 46 53 51 56 58 59 75 80 63 47 55 54 52 49 44 37 34 30 25 22
67 72 75 79 78 80 77 79 80 81 83 86 87 89 91 95 90 72 59 62 60 63 61 61 65 59 57 59 73 85 77 59 57 60 53 53 49 45 41 35 27 21 22
61 64 66 73 78 72 69 67 66 62 49 60 73 56 74 82 95 82 68 56 59 62 67 69 64 56 61 68 73 81 68 57 62 62 57 51 50 40 33 32 23 17 20
63 69 67 53 42 33 19 11 11 10 17 27 37 52 57 62 81 72 69 67 64 60 58 54 63 64 70 80 76 73 59 63 60 58 55 46 42 38 35 26 19 18 21
64 54 33 23 12 13 7 13 7 15 31 39 42 49 59 61 60 62 60 55 60 50 43 60 65 70 82 72 71 62 53 56 55 57 48 42 41 39 28 22 19 20 20
35 24 20 26 24 19 22 18 21 21 26 35 38 49 52 47 43 45 41 41 42 56 67 64 68 71 74 66 58 57 58 58 58 53 44 42 42 34 25 23 24 23 20
19 30 31 23 19 19 42 37 42 42 50 49 50 53 47 50 55 68 75 69 72 60 59 58 56 53 52 52 50 52 56 55 52 48 43 42 37 32 24 24 24 20 22
28 30 27 20 31 47 50 53 55 55 67 75 74 73 81 74 66 52 51 55 59 64 63 61 59 57 55 54 50 48 47 45 41 38 40 39 33 30 24 23 20 19 22
28 26 28 33 39 47 47 46 41 47 53 65 49 51 55 59 72 80 86 81 79 72 66 62 59 57 54 51 48 44 40 39 40 39 37 33 33 30 21 19 20 18 15
31 26 34 40 44 48 53 62 69 70 81 81 80 79 80 79 78 77 76 74 73 70 66 62 56 52 50 46 42 39 39 37 35 31 30 29 33 27 23 20 19 16 15
Wind_Direction_500mb
200 216 212 213 220 227 235 241 247 247 248 247 244 239 235 234 240 245 258 273 276 274 270 268 270 272 271 275 279 281 280 280 291 285 286 293 297 289 271 266 244 241 244
218 227 227 230 231 233 235 240 241 241 235 241 237 233 233 240 248 259 285 312 313 303 301 286 277 274 274 275 276 276 283 274 289 285 287 286 292 291 254 258 241 238 243
256 255 253 248 243 244 245 243 242 242 241 242 243 240 245 254 262 272 288 297 306 312 307 310 304 289 282 281 281 280 279 277 277 276 282 285 289 279 247 248 231 236 239
264 271 274 258 252 249 247 245 247 245 243 244 247 248 248 252 257 268 279 286 295 304 304 298 306 308 306 296 285 277 279 281 280 280 279 285 277 269 247 239 231 235 243
258 264 273 273 254 249 248 247 246 249 248 245 246 250 252 253 255 261 270 277 284 293 300 304 306 304 303 305 295 283 277 279 281 278 276 276 269 244 244 249 244 239 247
270 255 255 260 260 252 252 249 247 249 251 250 248 248 249 252 253 259 267 271 276 281 289 297 304 303 301 297 292 287 276 273 274 274 276 270 262 236 259 248 244 237 245
289 283 273 258 262 259 253 251 250 250 251 251 252 253 256 252 251 258 267 271 277 282 284 288 295 295 291 293 291 288 278 259 261 267 261 262 221 243 248 258 236 239 252
288 284 280 278 276 273 265 257 251 250 254 254 253 251 250 250 253 254 259 263 271 280 287 293 294 293 292 291 288 284 281 261 258 250 242 228 229 240 264 247 242 245 246
288 287 283 280 276 274 272 269 261 257 253 252 253 252 254 254 250 251 254 263 272 280 287 292 294 290 289 289 284 278 276 265 259 240 218 237 235 245 220 235 232 233 231
287 286 284 282 279 275 272 269 267 263 257 252 251 255 257 253 247 248 256 265 274 282 290 292 289 286 292 285 272 271 266 259 257 236 224 237 249 230 212 220 232 233 231
290 288 284 279 276 275 274 272 270 264 260 257 253 250 246 243 246 252 257 264 274 283 287 288 286 285 285 275 265 262 254 264 267 238 223 235 238 223 210 219 225 230 233
285 284 285 281 276 274 273 270 268 267 264 258 255 253 251 251 253 254 258 263 271 277 281 283 278 279 277 267 257 251 253 257 256 223 217 223 232 211 213 220 219 219 220
282 279 274 272 269 268 266 266 265 261 255 253 250 251 254 256 258 259 261 263 267 269 270 270 267 269 268 260 252 248 250 236 225 206 211 219 226 214 213 210 210 210 216
276 280 282 280 277 274 268 262 256 251 248 246 245 245 247 247 251 257 263 266 261 257 256 253 255 261 259 249 242 228 222 212 197 210 209 228 207 207 206 206 208 212 218
277 276 276 276 276 275 270 265 260 258 252 248 243 241 239 240 240 245 257 254 248 250 246 248 250 249 248 244 234 225 207 202 205 204 213 204 200 199 194 197 203 209 225
278 277 275 273 271 269 266 266 267 264 261 258 254 247 240 241 246 242 238 249 251 241 247 238 247 244 241 233 216 207 195 195 205 203 191 189 198 193 191 189 195 213 213
278 278 278 278 271 267 263 258 257 261 262 257 251 248 243 240 238 233 237 245 245 237 238 231 237 242 231 219 210 198 192 193 192 186 185 191 193 184 184 196 206 209 213
278 278 277 279 280 275 270 268 263 258 257 253 253 243 238 233 225 224 229 229 231 233 236 226 225 234 232 214 207 195 194 191 190 179 184 186 182 184 186 198 206 210 219
287 288 293 292 286 280 276 272 269 267 258 250 227 228 216 224 218 227 229 215 226 223 224 228 224 228 213 210 199 196 188 187 181 178 178 180 184 185 181 186 190 201 210
297 298 304 300 299 303 289 263 232 210 149 144 160 167 177 201 213 216 215 213 219 219 218 231 218 209 206 201 196 185 182 182 182 179 173 180 178 180 184 183 195 202 201
308 314 321 329 357 21 62 207 101 139 140 141 142 157 167 171 185 194 202 205 214 222 225 210 204 183 195 196 191 191 185 176 177 173 170 171 175 172 173 185 193 194 197
321 356 58 83 110 110 101 126 139 133 135 136 146 151 161 169 179 191 207 198 193 182 183 190 188 185 179 183 180 177 172 172 174 167 168 168 168 170 174 180 185 195 196
65 86 98 129 131 114 110 121 128 125 120 129 138 143 149 164 167 162 157 162 172 177 174 173 174 174 170 161 161 166 167 169 165 169 169 166 169 172 181 191 201 195 198
100 112 129 108 120 110 112 115 119 125 121 131 133 138 143 142 138 145 164 158 156 143 136 134 138 141 144 148 148 149 154 158 162 163 169 169 168 178 187 192 187 190 203
126 137 126 126 124 111 117 111 111 108 115 118 110 113 124 130 124 119 120 124 125 126 129 132 133 136 139 142 144 147 152 158 161 165 169 176 185 185 186 184 185 180 179
139 131 128 134 127 117 122 112 118 116 114 117 119 118 119 119 119 118 120 123 124 125 127 127 128 131 133 135 139 148 155 159 166 174 173 177 177 177 176 172 169 174 173
Wind_Speed_850mb
50 49 40 38 29 30 36 31 26 24 27 26 23 22 18 11 17 22 23 25 32 37 40 45 49 48 53 54 46 48 55 62 63 68 68 69 71 65 44 57 56 48 45
58 64 59 52 44 46 47 43 37 32 31 27 25 23 18 14 12 10 14 18 23 26 28 35 40 43 45 48 47 54 54 65 63 65 70 70 73 65 33 48 54 49 46
54 64 67 64 62 61 62 58 52 47 43 42 42 38 33 28 25 24 25 27 29 28 29 31 31 36 44 45 41 42 44 46 56 60 68 69 75 54 35 54 54 48 47
33 34 41 58 71 72 69 71 71 61 57 52 52 52 49 44 40 36 37 38 40 38 36 37 36 39 41 44 50 53 48 50 50 60 64 66 66 56 37 54 52 47 47
26 29 28 29 47 59 67 72 77 81 73 64 63 60 58 56 52 48 46 46 45 45 46 50 48 49 47 48 51 55 58 53 52 58 65 69 62 51 44 53 45 45 46
23 26 29 32 36 39 47 63 75 81 85 81 77 72 67 65 63 57 53 53 51 52 52 55 60 63 60 56 55 52 55 54 61 59 67 71 61 43 45 52 43 49 48
39 40 40 42 45 46 45 49 55 65 78 85 83 81 83 76 70 62 58 58 57 58 61 63 67 67 65 64 61 56 53 49 58 66 71 64 44 58 58 50 46 49 46
63 61 56 54 57 54 56 57 62 62 65 66 70 69 68 70 69 66 64 63 64 67 71 73 74 71 68 65 59 57 49 44 54 57 57 42 44 38 46 37 39 43 40
86 85 80 74 71 70 67 65 68 68 75 76 75 74 75 78 74 74 70 69 72 75 75 79 79 72 64 58 59 51 45 50 38 42 48 45 43 36 29 35 46 43 42
93 93 94 93 90 87 83 78 70 67 77 80 85 86 87 89 83 80 76 76 80 80 80 80 81 74 65 55 49 43 48 53 43 52 54 44 31 42 35 37 43 47 45
102 103 100 95 97 96 94 94 90 83 77 74 75 80 84 90 92 88 85 84 83 84 83 83 81 71 60 49 39 44 54 51 55 54 55 34 37 44 40 42 42 39 39
82 84 87 82 85 89 87 87 89 91 95 93 90 92 96 100 101 102 101 95 90 87 85 83 74 68 56 49 42 46 49 47 57 52 49 37 38 44 41 39 38 35 31
83 81 71 74 72 65 68 73 73 76 80 83 84 92 106 113 118 119 117 111 100 87 80 77 71 65 57 54 45 41 44 40 49 53 49 43 48 40 38 39 37 36 34
79 84 77 75 75 76 80 82 83 83 82 83 86 89 88 88 93 103 112 104 91 83 74 75 72 60 61 54 48 49 41 53 54 52 45 39 47 42 39 37 38 35 32
79 80 81 82 81 80 79 82 87 90 91 93 91 86 81 79 77 73 83 70 63 62 58 59 58 61 62 58 52 48 52 66 55 49 43 47 49 43 39 35 29 27 28
77 78 79 78 78 79 81 85 86 86 84 88 91 92 84 82 76 70 75 62 50 45 47 45 47 55 61 60 55 50 68 64 57 48 53 55 52 46 42 36 27 25 23
74 79 81 80 77 79 84 84 85 86 89 93 95 94 95 93 76 84 73 54 49 48 56 46 53 51 56 58 59 75 80 63 47 55 54 52 49 44 37 34 30 25 22
67 72 75 79 78 80 77 79 80 81 83 86 87 89 91 95 90 72 59 62 60 63 61 61 65 59 57 59 73 85 77 59 57 60 53 53 49 45 41 35 27 21 22
61 64 66 73 78 72 69 67 66 62 49 60 73 56 74 82 95 82 68 56 59 62 67 69 64 56 61 68 73 81 68 57 62 62 57 51 50 40 33 32 23 17 20
63 69 67 53 42 33 19 11 11 10 17 27 37 52 57 62 81 72 69 67 64 60 58 54 63 64 70 80 76 73 59 63 60 58 55 46 42 38 35 26 19 18 21
64 54 33 23 12 13 7 13 7 15 31 39 42 49 59 61 60 62 60 55 60 50 43 60 65 70 82 72 71 62 53 56 55 57 48 42 41 39 28 22 19 20 20
35 24 20 26 24 19 22 18 21 21 26 35 38 49 52 47 43 45 41 41 42 56 67 64 68 71 74 66 58 57 58 58 58 53 44 42 42 34 25 23 24 23 20
19 30 31 23 19 19 42 37 42 42 50 49 50 53 47 50 55 68 75 69 72 60 59 58 56 53 52 52 50 52 56 55 52 48 43 42 37 32 24 24 24 20 22
28 30 27 20 31 47 50 53 55 55 67 75 74 73 81 74 66 52 51 55 59 64 63 61 59 57 55 54 50 48 47 45 41 38 40 39 33 30 24 23 20 19 22
28 26 28 33 39 47 47 46 41 47 53 65 49 51 55 59 72 80 86 81 79 72 66 62 59 57 54 51 48 44 40 39 40 39 37 33 33 30 21 19 20 18 15
31 26 34 40 44 48 53 62 69 70 81 81 80 79 80 79 78 77 76 74 73 70 66 62 56 52 50 46 42 39 39 37 35 31 30 29 33 27 23 20 19 16 15
Wind_Direction_850mb
200 216 212 213 220 227 235 241 247 247 248 247 244 239 235 234 240 245 258 273 276 274 270 268 270 272 271 275 279 281 280 280 291 285 286 293 297 289 271 266 244 241 244
218 227 227 230 231 233 235 240 241 241 235 241 237 233 233 240 248 259 285 312 313 303 301 286 277 274 274 275 276 276 283 274 289 285 287 286 292 291 254 258 241 238 243
256 255 253 248 243 244 245 243 242 242 241 242 243 240 245 254 262 272 288 297 306 312 307 310 304 289 282 281 281 280 279 277 277 276 282 285 289 279 247 248 231 236 239
264 271 274 258 252 249 247 245 247 245 243 244 247 248 248 252 257 268 279 286 295 304 304 298 306 308 306 296 285 277 279 281 280 280 279 285 277 269 247 239 231 235 243
258 264 273 273 254 249 248 247 246 249 248 245 246 250 252 253 255 261 270 277 284 293 300 304 306 304 303 305 295 283 277 279 281 278 276 276 269 244 244 249 244 239 247
270 255 255 260 260 252 252 249 247 249 251 250 248 248 249 252 253 259 267 271 276 281 289 297 304 303 301 297 292 287 276 273 274 274 276 270 262 236 259 248 244 237 245
289 283 273 258 262 259 253 251 250 250 251 251 252 253 256 252 251 258 267 271 277 282 284 288 295 295 291 293 291 288 278 259 261 267 261 262 221 243 248 258 236 239 252
288 284 280 278 276 273 265 257 251 250 254 254 253 251 250 250 253 254 259 263 271 280 287 293 294 293 292 291 288 284 281 261 258 250 242 228 229 240 264 247 242 245 246
288 287 283 280 276 274 272 269 261 257 253 252 253 252 254 254 250 251 254 263 272 280 287 292 294 290 289 289 284 278 276 265 259 240 218 237 235 245 220 235 232 233 231
287 286 284 282 279 275 272 269 267 263 257 252 251 255 257 253 247 248 256 265 274 282 290 292 289 286 292 285 272 271 266 259 257 236 224 237 249 230 212 220 232 233 231
290 288 284 279 276 275 274 272 270 264 260 257 253 250 246 243 246 252 257 264 274 283 287 288 286 285 285 275 265 262 254 264 267 238 223 235 238 223 210 219 225 230 233
285 284 285 281 276 274 273 270 268 267 264 258 255 253 251 251 253 254 258 263 271 277 281 283 278 279 277 267 257 251 253 257 256 223 217 223 232 211 213 220 219 219 220
282 279 274 272 269 268 266 266 265 261 255 253 250 251 254 256 258 259 261 263 267 269 270 270 267 269 268 260 252 248 250 236 225 206 211 219 226 214 213 210 210 210 216
276 280 282 280 277 274 268 262 256 251 248 246 245 245 247 247 251 257 263 266 261 257 256 253 255 261 259 249 242 228 222 212 197 210 209 228 207 207 206 206 208 212 218
277 276 276 276 276 275 270 265 260 258 252 248 243 241 239 240 240 245 257 254 248 250 246 248 250 249 248 244 234 225 207 202 205 204 213 204 200 199 194 197 203 209 225
278 277 275 273 271 269 266 266 267 264 261 258 254 247 240 241 246 242 238 249 251 241 247 238 247 244 241 233 216 207 195 195 205 203 191 189 198 193 191 189 195 213 213
278 278 278 278 271 267 263 258 257 261 262 257 251 248 243 240 238 233 237 245 245 237 238 231 237 242 231 219 210 198 192 193 192 186 185 191 193 184 184 196 206 209 213
278 278 277 279 280 275 270 268 263 258 257 253 253 243 238 233 225 224 229 229 231 233 236 226 225 234 232 214 207 195 194 191 190 179 184 186 182 184 186 198 206 210 219
287 288 293 292 286 280 276 272 269 267 258 250 227 228 216 224 218 227 229 215 226 223 224 228 224 228 213 210 199 196 188 187 181 178 178 180 184 185 181 186 190 201 210
297 298 304 300 299 303 289 263 232 210 149 144 160 167 177 201 213 216 215 213 219 219 218 231 218 209 206 201 196 185 182 182 182 179 173 180 178 180 184 183 195 202 201
308 314 321 329 357 21 62 207 101 139 140 141 142 157 167 171 185 194 202 205 214 222 225 210 204 183 195 196 191 191 185 176 177 173 170 171 175 172 173 185 193 194 197
321 356 58 83 110 110 101 126 139 133 135 136 146 151 161 169 179 191 207 198 193 182 183 190 188 185 179 183 180 177 172 172 174 167 168 168 168 170 174 180 185 195 196
65 86 98 129 131 114 110 121 128 125 120 129 138 143 149 164 167 162 157 162 172 177 174 173 174 174 170 161 161 166 167 169 165 169 169 166 169 172 181 191 201 195 198
100 112 129 108 120 110 112 115 119 125 121 131 133 138 143 142 138 145 164 158 156 143 136 134 138 141 144 148 148 149 154 158 162 163 169 169 168 178 187 192 187 190 203
126 137 126 126 124 111 117 111 111 108 115 118 110 113 124 130 124 119 120 124 125 126 129 132 133 136 139 142 144 147 152 158 161 165 169 176 185 185 186 184 185 180 179
139 131 128 134 127 117 122 112 118 116 114 117 119 118 119 119 119 118 120 123 124 125 127 127 128 131 133 135 139 148 155 159 166 174 173 177 177 177 176 172 169 174 173